Location: Unspecified
(0.0000°N, 0.0000°E)
Time: 02:15:09
(UTC+02:00)

NOAA 12 - Visible Passes

Search period start: 29 June 2017 00:00
Search period end: 09 July 2017 00:00
Orbit: 796 x 815 km, 98.6° (Epoch: 28 June)

Date Brightness Start Highest point End Pass type
(mag) Time Alt. Az. Time Alt. Az. Time Alt. Az.
29 Jun 4.1 20:50:19 10° SSE 20:55:34 68° ENE 21:00:50 10° N visible
30 Jun 4.8 20:25:55 10° SE 20:30:39 34° ENE 20:35:23 10° NNE visible
30 Jun 6.7 22:07:11 10° SW 22:10:10 15° WSW 22:13:09 10° WNW visible
01 Jul 5.8 21:40:41 10° SSW 21:45:16 30° WSW 21:49:52 10° NW visible
02 Jul 4.6 21:15:08 10° S 21:20:22 61° WSW 21:25:35 10° NNW visible
03 Jul 4.1 20:50:11 10° SSE 20:55:27 68° ENE 21:00:43 10° N visible
04 Jul 4.8 20:25:46 10° SE 20:30:32 34° ENE 20:35:17 10° NNE visible
04 Jul 6.7 22:07:03 10° SW 22:10:03 15° WSW 22:13:02 10° WNW visible
05 Jul 5.8 21:40:33 10° SSW 21:45:09 30° WSW 21:49:45 10° NW visible
06 Jul 4.6 21:15:01 10° S 21:20:14 61° WSW 21:25:28 10° NNW visible
07 Jul 4.1 20:50:03 10° SSE 20:55:19 68° ENE 21:00:36 10° N visible
08 Jul 4.8 20:25:39 10° SE 20:30:24 34° ENE 20:35:09 10° NNE visible
08 Jul 6.7 22:06:55 10° SW 22:09:55 15° WSW 22:12:55 10° WNW visible
